GPS BIIF-6 (PRN 06)

Last updated on Tue Jul 01 2025 00:03:13 GMT+0000 (Coordinated Universal Time)

1 39741U 14026A 25181.46557746 -.00000100 00000+0 00000+0 0 9998 2 39741 56.6431 345.1981 0034691 319.6952 40.0482 2.00573239 81480
UTC large
Height (km)
Speed (km/s)
/
Latitude / Longitude
Inclination (degrees)
Orbital Period (minutes)
Azimuth
Elevation
Range (km)
Doppler Factor

Next 0 passes for location: London (51.5072 / 0.1276)

Sorry there are no passes over London.